Time,TemperatureF,DewpointF,PressureIn,WindDirection,WindDirectionDegrees,WindSpeedMPH,WindSpeedGustMPH,Humidity,HourlyPrecipIn,Conditions,Clouds,dailyrainin,SoftwareType,DateUTC
2013-09-09 00:01:00,72.1,64.9,29.99,NW,319,0.0,0.0,78,0.00,,,0.00,meteohub,2013-09-09 04:01:00,
2013-09-09 00:02:00,72.1,64.9,29.99,NW,319,0.0,0.0,78,0.00,,,0.00,meteohub,2013-09-09 04:02:00,
2013-09-09 00:03:00,72.0,64.8,29.99,NW,319,0.0,0.0,78,0.00,,,0.00,meteohub,2013-09-09 04:03:00,
2013-09-09 00:04:00,72.0,65.1,29.99,NW,319,0.0,0.0,79,0.00,,,0.00,meteohub,2013-09-09 04:04:00,
2013-09-09 00:09:00,72.0,65.8,29.99,NW,319,0.0,0.0,81,0.00,,,0.00,meteohub,2013-09-09 04:09:00,
2013-09-09 00:14:00,71.8,64.6,30.00,NW,319,0.0,0.0,78,0.00,,,0.00,meteohub,2013-09-09 04:14:00,
2013-09-09 00:19:00,71.8,64.6,30.00,NW,319,0.0,0.0,78,0.00,,,0.00,meteohub,2013-09-09 04:19:00,
2013-09-09 00:24:00,71.4,64.2,30.00,NW,319,0.0,0.0,78,0.00,,,0.00,meteohub,2013-09-09 04:24:00,
2013-09-09 00:30:00,71.4,64.2,30.00,NW,319,0.0,0.0,78,0.00,,,0.00,meteohub,2013-09-09 04:30:00,
2013-09-09 00:35:00,71.4,64.9,30.00,NW,319,0.0,0.0,80,0.00,,,0.00,meteohub,2013-09-09 04:35:00,
2013-09-09 00:40:00,71.2,65.5,30.00,NW,319,0.0,0.0,82,0.00,,,0.00,meteohub,2013-09-09 04:40:00,
2013-09-09 00:45:00,71.2,64.4,30.00,NW,319,0.0,0.0,79,0.00,,,0.00,meteohub,2013-09-09 04:45:00,
2013-09-09 00:50:00,71.2,64.4,30.00,NW,319,0.0,0.0,79,0.00,,,0.00,meteohub,2013-09-09 04:50:00,
2013-09-09 00:56:00,71.2,64.8,30.00,NW,319,0.0,0.0,80,0.00,,,0.00,meteohub,2013-09-09 04:56:00,
2013-09-09 01:01:00,71.2,65.5,30.00,NW,319,0.0,0.0,82,0.00,,,0.00,meteohub,2013-09-09 05:01:00,
2013-09-09 01:06:00,71.2,65.1,30.00,NW,319,0.0,0.0,81,0.00,,,0.00,meteohub,2013-09-09 05:06:00,
2013-09-09 01:11:00,71.2,65.1,30.00,NW,319,0.0,0.0,81,0.00,,,0.00,meteohub,2013-09-09 05:11:00,
2013-09-09 01:16:00,71.2,66.2,30.00,NW,319,0.0,0.0,84,0.00,,,0.00,meteohub,2013-09-09 05:16:00,
2013-09-09 01:22:00,71.4,68.0,30.00,NW,319,0.0,0.0,89,0.00,,,0.00,meteohub,2013-09-09 05:22:00,
2013-09-09 01:27:00,71.4,67.6,30.00,NW,319,0.0,0.0,88,0.00,,,0.00,meteohub,2013-09-09 05:27:00,
2013-09-09 01:32:00,71.4,67.6,30.00,NW,319,0.0,0.0,88,0.00,,,0.00,meteohub,2013-09-09 05:32:00,
2013-09-09 01:37:00,71.4,68.0,30.01,NW,319,0.0,0.0,89,0.00,,,0.00,meteohub,2013-09-09 05:37:00,
2013-09-09 01:42:00,71.2,67.8,30.01,NW,319,0.0,0.0,89,0.00,,,0.00,meteohub,2013-09-09 05:42:00,
2013-09-09 01:47:00,71.2,67.8,30.01,NW,319,0.0,0.0,89,0.00,,,0.00,meteohub,2013-09-09 05:47:00,
2013-09-09 01:52:00,71.2,67.8,30.01,NW,319,0.0,0.0,89,0.00,,,0.00,meteohub,2013-09-09 05:52:00,
2013-09-09 01:57:00,71.2,67.8,30.01,NW,319,0.0,0.0,89,0.00,,,0.00,meteohub,2013-09-09 05:57:00,
2013-09-09 02:02:00,71.2,67.8,30.01,NW,319,0.0,0.0,89,0.00,,,0.00,meteohub,2013-09-09 06:02:00,
2013-09-09 02:07:00,71.2,67.8,30.01,NW,319,0.0,0.0,89,0.00,,,0.00,meteohub,2013-09-09 06:07:00,
2013-09-09 02:12:00,71.1,67.3,30.01,NW,319,0.0,0.0,88,0.00,,,0.00,meteohub,2013-09-09 06:12:00,
2013-09-09 02:17:00,71.1,67.3,30.01,NW,319,0.0,0.0,88,0.00,,,0.00,meteohub,2013-09-09 06:17:00,
2013-09-09 02:22:00,71.1,66.4,30.01,NW,319,0.0,0.0,85,0.00,,,0.00,meteohub,2013-09-09 06:22:00,
2013-09-09 02:27:00,71.1,65.3,30.01,NW,319,0.0,0.0,82,0.00,,,0.00,meteohub,2013-09-09 06:27:00,
2013-09-09 02:32:00,71.1,65.3,30.01,NW,319,0.0,0.0,82,0.00,,,0.00,meteohub,2013-09-09 06:32:00,
2013-09-09 02:37:00,71.1,64.9,30.01,NW,319,0.0,0.0,81,0.00,,,0.00,meteohub,2013-09-09 06:37:00,
2013-09-09 02:42:00,71.1,64.9,30.01,NW,319,0.0,0.0,81,0.00,,,0.00,meteohub,2013-09-09 06:42:00,
2013-09-09 02:47:00,71.1,64.6,30.01,NW,319,0.0,0.0,80,0.00,,,0.00,meteohub,2013-09-09 06:47:00,
2013-09-09 02:52:00,71.1,64.6,30.01,NW,319,0.0,0.0,80,0.00,,,0.00,meteohub,2013-09-09 06:52:00,
2013-09-09 02:57:00,71.2,65.1,30.01,NW,319,0.0,0.0,81,0.00,,,0.00,meteohub,2013-09-09 06:57:00,
2013-09-09 03:02:00,71.2,66.9,30.01,NW,319,0.0,0.0,86,0.00,,,0.00,meteohub,2013-09-09 07:02:00,
2013-09-09 03:07:00,71.2,65.8,30.01,NW,319,0.0,0.0,83,0.00,,,0.00,meteohub,2013-09-09 07:07:00,
2013-09-09 03:12:00,71.2,65.8,30.01,NW,319,0.0,0.0,83,0.00,,,0.00,meteohub,2013-09-09 07:12:00,
2013-09-09 03:17:00,71.2,65.1,30.01,NW,319,0.0,0.0,81,0.00,,,0.00,meteohub,2013-09-09 07:17:00,
2013-09-09 03:22:00,71.1,64.9,30.01,NW,319,0.0,0.0,81,0.00,,,0.00,meteohub,2013-09-09 07:22:00,
2013-09-09 03:27:00,71.1,66.4,30.01,NW,319,0.0,0.0,85,0.00,,,0.00,meteohub,2013-09-09 07:27:00,
2013-09-09 03:32:00,71.1,66.7,30.01,NW,319,0.0,0.0,86,0.00,,,0.00,meteohub,2013-09-09 07:32:00,
2013-09-09 03:37:00,70.7,65.7,30.01,NW,319,0.0,0.0,84,0.00,,,0.00,meteohub,2013-09-09 07:37:00,
2013-09-09 03:42:00,70.5,65.8,30.01,NW,319,0.0,0.0,85,0.00,,,0.00,meteohub,2013-09-09 07:42:00,
2013-09-09 03:47:00,70.3,66.2,30.01,NW,319,0.0,0.0,87,0.00,,,0.00,meteohub,2013-09-09 07:47:00,
2013-09-09 03:52:00,70.3,66.0,30.01,NW,319,0.0,0.0,86,0.00,,,0.00,meteohub,2013-09-09 07:52:00,
2013-09-09 03:57:00,70.2,66.0,30.01,NW,319,0.0,0.0,87,0.00,,,0.00,meteohub,2013-09-09 07:57:00,
2013-09-09 04:02:00,70.0,66.0,30.02,NW,319,0.0,0.0,87,0.00,,,0.00,meteohub,2013-09-09 08:02:00,
2013-09-09 04:08:00,69.8,65.8,30.02,NW,319,0.0,0.0,87,0.00,,,0.00,meteohub,2013-09-09 08:08:00,
2013-09-09 04:13:00,69.6,65.8,30.02,NW,319,0.0,0.0,88,0.00,,,0.00,meteohub,2013-09-09 08:13:00,
2013-09-09 04:18:00,69.4,65.7,30.02,NW,319,0.0,0.0,88,0.00,,,0.00,meteohub,2013-09-09 08:18:00,
2013-09-09 04:23:00,69.3,65.8,30.02,NW,319,0.0,0.0,89,0.00,,,0.00,meteohub,2013-09-09 08:23:00,
2013-09-09 04:29:00,69.1,66.0,30.02,NW,319,0.0,0.0,90,0.00,,,0.00,meteohub,2013-09-09 08:29:00,
2013-09-09 04:34:00,68.7,65.7,30.02,NW,319,0.0,0.0,90,0.00,,,0.00,meteohub,2013-09-09 08:34:00,
2013-09-09 04:39:00,68.5,65.8,30.02,NW,319,0.0,0.0,91,0.00,,,0.00,meteohub,2013-09-09 08:39:00,
2013-09-09 04:44:00,68.5,65.8,30.02,NW,319,0.0,0.0,91,0.00,,,0.00,meteohub,2013-09-09 08:44:00,
2013-09-09 04:49:00,68.4,66.0,30.02,NW,319,0.0,0.0,92,0.00,,,0.00,meteohub,2013-09-09 08:49:00,
2013-09-09 04:55:00,68.4,65.7,30.03,NW,319,0.0,0.0,91,0.00,,,0.00,meteohub,2013-09-09 08:55:00,
2013-09-09 05:00:00,68.4,65.7,30.03,NW,319,0.0,0.0,91,0.00,,,0.00,meteohub,2013-09-09 09:00:00,
2013-09-09 05:05:00,68.4,65.7,30.03,NW,319,0.0,0.0,91,0.00,,,0.00,meteohub,2013-09-09 09:05:00,
2013-09-09 05:10:00,68.2,65.8,30.03,NW,319,0.0,0.0,92,0.00,,,0.00,meteohub,2013-09-09 09:10:00,
2013-09-09 05:15:00,68.2,65.8,30.03,NW,319,0.0,0.0,92,0.00,,,0.00,meteohub,2013-09-09 09:15:00,
2013-09-09 05:21:00,68.2,65.8,30.03,NW,319,0.0,0.0,92,0.00,,,0.00,meteohub,2013-09-09 09:21:00,
2013-09-09 05:26:00,68.2,65.8,30.04,NW,319,0.0,0.0,92,0.00,,,0.00,meteohub,2013-09-09 09:26:00,
2013-09-09 05:31:00,68.2,65.8,30.04,NW,319,0.0,0.0,92,0.00,,,0.00,meteohub,2013-09-09 09:31:00,
2013-09-09 05:36:00,68.0,65.8,30.04,NW,319,0.0,0.0,93,0.00,,,0.00,meteohub,2013-09-09 09:36:00,
2013-09-09 05:41:00,67.8,65.7,30.04,NW,319,0.0,0.0,93,0.00,,,0.00,meteohub,2013-09-09 09:41:00,
2013-09-09 05:47:00,67.6,65.5,30.04,NW,319,0.0,0.0,93,0.00,,,0.00,meteohub,2013-09-09 09:47:00,
2013-09-09 05:52:00,67.6,65.5,30.04,NW,319,0.0,0.0,93,0.00,,,0.00,meteohub,2013-09-09 09:52:00,
2013-09-09 05:57:00,67.6,65.5,30.04,NW,319,0.0,0.0,93,0.00,,,0.00,meteohub,2013-09-09 09:57:00,
2013-09-09 06:02:00,67.5,65.3,30.04,NW,319,0.0,0.0,93,0.00,,,0.00,meteohub,2013-09-09 10:02:00,
2013-09-09 06:07:00,67.5,65.3,30.05,NW,319,0.0,0.0,93,0.00,,,0.00,meteohub,2013-09-09 10:07:00,
2013-09-09 06:12:00,67.5,65.3,30.05,NW,319,0.0,0.0,93,0.00,,,0.00,meteohub,2013-09-09 10:12:00,
2013-09-09 06:17:00,67.5,65.3,30.05,NW,319,0.0,0.0,93,0.00,,,0.00,meteohub,2013-09-09 10:17:00,
2013-09-09 06:22:00,67.5,65.3,30.05,NW,319,0.0,0.0,93,0.00,,,0.00,meteohub,2013-09-09 10:22:00,
2013-09-09 06:27:00,67.5,65.3,30.05,NW,319,0.0,0.0,93,0.00,,,0.00,meteohub,2013-09-09 10:27:00,
2013-09-09 06:32:00,67.3,65.5,30.05,NW,319,0.0,0.0,94,0.00,,,0.00,meteohub,2013-09-09 10:32:00,
2013-09-09 06:37:00,67.3,65.1,30.05,NW,319,0.0,0.0,93,0.00,,,0.00,meteohub,2013-09-09 10:37:00,
2013-09-09 06:42:00,67.3,65.1,30.06,NW,319,0.0,0.0,93,0.00,,,0.00,meteohub,2013-09-09 10:42:00,
2013-09-09 06:47:00,67.3,65.1,30.06,NW,319,0.0,0.0,93,0.00,,,0.00,meteohub,2013-09-09 10:47:00,
2013-09-09 06:52:00,67.1,65.3,30.06,NW,319,0.0,0.0,94,0.00,,,0.00,meteohub,2013-09-09 10:52:00,
2013-09-09 06:57:00,66.9,65.1,30.06,NW,319,0.0,0.0,94,0.00,,,0.00,meteohub,2013-09-09 10:57:00,
2013-09-09 07:02:00,66.9,65.1,30.07,WNW,293,0.0,0.0,94,0.00,,,0.00,meteohub,2013-09-09 11:02:00,
2013-09-09 07:07:00,66.9,65.1,30.07,WNW,293,0.0,0.0,94,0.00,,,0.00,meteohub,2013-09-09 11:07:00,
2013-09-09 07:12:00,66.7,64.9,30.08,WNW,293,0.0,0.0,94,0.00,,,0.00,meteohub,2013-09-09 11:12:00,
2013-09-09 07:17:00,66.7,64.9,30.08,WNW,293,0.0,0.0,94,0.00,,,0.00,meteohub,2013-09-09 11:17:00,
2013-09-09 07:22:00,66.6,64.8,30.08,WNW,293,0.0,0.0,94,0.00,,,0.00,meteohub,2013-09-09 11:22:00,
2013-09-09 07:27:00,66.6,64.8,30.08,WNW,293,0.0,0.0,94,0.00,,,0.00,meteohub,2013-09-09 11:27:00,
2013-09-09 07:32:00,66.6,65.1,30.08,WNW,293,0.0,0.0,95,0.00,,,0.00,meteohub,2013-09-09 11:32:00,
2013-09-09 07:37:00,66.6,65.1,30.08,WNW,293,0.0,0.0,95,0.00,,,0.00,meteohub,2013-09-09 11:37:00,
2013-09-09 07:42:00,66.6,65.1,30.08,WNW,293,0.0,0.0,95,0.00,,,0.00,meteohub,2013-09-09 11:42:00,
2013-09-09 07:47:00,66.6,65.1,30.08,WNW,293,0.0,0.0,95,0.00,,,0.00,meteohub,2013-09-09 11:47:00,
2013-09-09 07:52:00,66.6,65.1,30.09,WNW,293,0.0,0.0,95,0.00,,,0.00,meteohub,2013-09-09 11:52:00,
2013-09-09 07:57:00,66.6,65.1,30.09,WNW,293,0.0,0.0,95,0.00,,,0.00,meteohub,2013-09-09 11:57:00,
2013-09-09 08:02:00,66.6,65.3,30.09,WNW,293,0.0,0.0,96,0.00,,,0.00,meteohub,2013-09-09 12:02:00,
2013-09-09 08:07:00,66.7,65.5,30.09,WNW,293,0.0,0.0,96,0.00,,,0.00,meteohub,2013-09-09 12:07:00,
2013-09-09 08:12:00,66.7,65.5,30.09,WNW,293,0.0,0.0,96,0.00,,,0.00,meteohub,2013-09-09 12:12:00,
2013-09-09 08:17:00,66.9,66.0,30.09,WNW,293,0.0,0.0,97,0.00,,,0.00,meteohub,2013-09-09 12:17:00,
2013-09-09 08:22:00,67.1,66.2,30.09,WNW,293,0.0,0.0,97,0.00,,,0.00,meteohub,2013-09-09 12:22:00,
2013-09-09 08:27:00,67.3,66.4,30.09,WNW,293,0.0,0.0,97,0.00,,,0.00,meteohub,2013-09-09 12:27:00,
2013-09-09 08:32:00,67.5,66.6,30.09,WNW,293,0.0,0.0,97,0.00,,,0.00,meteohub,2013-09-09 12:32:00,
2013-09-09 08:37:00,67.8,66.9,30.09,WNW,293,0.0,0.0,97,0.00,,,0.00,meteohub,2013-09-09 12:37:00,
2013-09-09 08:42:00,68.0,67.1,30.09,WNW,293,0.0,0.0,97,0.00,,,0.00,meteohub,2013-09-09 12:42:00,
2013-09-09 08:47:00,68.4,67.5,30.09,WNW,293,0.0,0.0,97,0.00,,,0.00,meteohub,2013-09-09 12:47:00,
2013-09-09 08:52:00,68.5,67.6,30.09,WNW,293,0.0,0.0,97,0.00,,,0.00,meteohub,2013-09-09 12:52:00,
2013-09-09 08:57:00,68.7,67.8,30.09,WNW,293,0.0,0.0,97,0.00,,,0.00,meteohub,2013-09-09 12:57:00,
2013-09-09 09:02:00,69.1,68.2,30.10,WNW,293,0.0,0.0,97,0.00,,,0.00,meteohub,2013-09-09 13:02:00,
2013-09-09 09:07:00,69.4,68.2,30.10,WNW,293,0.0,0.0,96,0.00,,,0.00,meteohub,2013-09-09 13:07:00,
2013-09-09 09:12:00,69.8,68.5,30.10,NW,315,2.0,0.0,96,0.00,,,0.00,meteohub,2013-09-09 13:12:00,
2013-09-09 09:17:00,70.2,68.0,30.10,NW,321,3.0,4.0,93,0.00,,,0.00,meteohub,2013-09-09 13:17:00,
2013-09-09 09:22:00,70.3,67.8,30.11,NW,321,1.0,4.0,92,0.00,,,0.00,meteohub,2013-09-09 13:22:00,
2013-09-09 09:27:00,70.7,68.2,30.11,NW,321,0.0,4.0,92,0.00,,,0.00,meteohub,2013-09-09 13:27:00,
2013-09-09 09:32:00,70.9,68.2,30.11,NW,321,0.0,3.0,91,0.00,,,0.00,meteohub,2013-09-09 13:32:00,
2013-09-09 09:37:00,71.2,68.2,30.11,NW,321,0.0,2.0,90,0.00,,,0.00,meteohub,2013-09-09 13:37:00,
2013-09-09 09:42:00,71.4,68.0,30.11,NW,321,0.0,2.0,89,0.00,,,0.00,meteohub,2013-09-09 13:42:00,
2013-09-09 09:47:00,72.0,68.2,30.12,NW,320,0.0,0.0,88,0.00,,,0.00,meteohub,2013-09-09 13:47:00,
2013-09-09 09:52:00,72.3,68.5,30.12,NW,321,0.0,0.0,88,0.00,,,0.00,meteohub,2013-09-09 13:52:00,
2013-09-09 09:57:00,72.7,67.8,30.12,NW,321,0.0,0.0,85,0.00,,,0.00,meteohub,2013-09-09 13:57:00,
2013-09-09 10:02:00,73.0,68.0,30.12,East,82,0.0,0.0,84,0.00,,,0.00,meteohub,2013-09-09 14:02:00,
2013-09-09 10:07:00,73.4,68.2,30.12,East,82,0.0,0.0,84,0.00,,,0.00,meteohub,2013-09-09 14:07:00,
2013-09-09 10:12:00,73.9,68.7,30.12,East,98,0.0,0.0,84,0.00,,,0.00,meteohub,2013-09-09 14:12:00,
2013-09-09 10:17:00,74.5,68.5,30.12,WSW,240,0.0,0.0,82,0.00,,,0.00,meteohub,2013-09-09 14:17:00,
2013-09-09 10:22:00,74.7,68.0,30.12,ESE,107,0.0,0.0,80,0.00,,,0.00,meteohub,2013-09-09 14:22:00,
2013-09-09 10:27:00,75.0,68.4,30.12,SE,128,0.0,0.0,80,0.00,,,0.00,meteohub,2013-09-09 14:27:00,
2013-09-09 10:32:00,75.4,68.7,30.13,SE,126,0.0,2.0,80,0.00,,,0.00,meteohub,2013-09-09 14:32:00,
2013-09-09 10:37:00,75.6,68.9,30.13,SSE,161,0.0,2.0,80,0.00,,,0.00,meteohub,2013-09-09 14:37:00,
2013-09-09 10:42:00,75.7,69.1,30.13,SSE,161,0.0,2.0,80,0.00,,,0.00,meteohub,2013-09-09 14:42:00,
2013-09-09 10:47:00,76.3,69.6,30.13,SSE,161,0.0,1.0,80,0.00,,,0.00,meteohub,2013-09-09 14:47:00,
2013-09-09 10:52:00,77.0,68.5,30.13,ESE,123,0.0,0.0,75,0.00,,,0.00,meteohub,2013-09-09 14:52:00,
2013-09-09 10:57:00,77.4,68.9,30.13,ESE,123,0.0,0.0,75,0.00,,,0.00,meteohub,2013-09-09 14:57:00,
2013-09-09 11:02:00,77.9,69.8,30.13,SSE,149,0.0,2.0,76,0.00,,,0.00,meteohub,2013-09-09 15:02:00,
2013-09-09 11:07:00,78.4,69.1,30.13,SSE,148,0.0,2.0,73,0.00,,,0.00,meteohub,2013-09-09 15:07:00,
2013-09-09 11:12:00,78.8,69.1,30.13,East,98,0.0,2.0,72,0.00,,,0.00,meteohub,2013-09-09 15:12:00,
2013-09-09 11:17:00,78.4,69.4,30.13,East,100,1.0,2.0,74,0.00,,,0.00,meteohub,2013-09-09 15:17:00,
2013-09-09 11:22:00,78.6,68.9,30.13,East,100,0.0,2.0,72,0.00,,,0.00,meteohub,2013-09-09 15:22:00,
2013-09-09 11:27:00,78.6,69.3,30.13,East,100,0.0,2.0,73,0.00,,,0.00,meteohub,2013-09-09 15:27:00,
2013-09-09 11:32:00,79.0,69.3,30.13,ESE,121,1.0,1.0,72,0.00,,,0.00,meteohub,2013-09-09 15:32:00,
2013-09-09 11:37:00,79.0,69.3,30.13,ESE,121,0.0,3.0,72,0.00,,,0.00,meteohub,2013-09-09 15:37:00,
2013-09-09 11:42:00,79.2,68.9,30.13,ESE,120,0.0,3.0,71,0.00,,,0.00,meteohub,2013-09-09 15:42:00,
2013-09-09 11:47:00,79.5,69.6,30.13,ESE,120,0.0,3.0,72,0.00,,,0.00,meteohub,2013-09-09 15:47:00,
2013-09-09 11:52:00,80.1,69.8,30.13,ESE,119,0.0,3.0,71,0.00,,,0.00,meteohub,2013-09-09 15:52:00,
2013-09-09 11:57:00,80.1,69.4,30.13,SE,136,2.0,3.0,70,0.00,,,0.00,meteohub,2013-09-09 15:57:00,
2013-09-09 12:02:00,80.2,68.4,30.13,ESE,119,2.0,3.0,67,0.00,,,0.00,meteohub,2013-09-09 16:02:00,
2013-09-09 12:07:00,79.9,68.7,30.13,ESE,113,0.0,4.0,69,0.00,,,0.00,meteohub,2013-09-09 16:07:00,
2013-09-09 12:12:00,80.2,68.7,30.13,SE,131,1.0,4.0,68,0.00,,,0.00,meteohub,2013-09-09 16:12:00,
2013-09-09 12:17:00,80.2,69.6,30.13,SE,145,1.0,4.0,70,0.00,,,0.00,meteohub,2013-09-09 16:17:00,
2013-09-09 12:22:00,80.2,68.4,30.13,SE,136,0.0,4.0,67,0.00,,,0.00,meteohub,2013-09-09 16:22:00,
2013-09-09 12:27:00,80.1,69.4,30.13,ESE,120,1.0,4.0,70,0.00,,,0.00,meteohub,2013-09-09 16:27:00,
2013-09-09 12:32:00,80.8,69.3,30.13,ESE,122,1.0,4.0,68,0.00,,,0.00,meteohub,2013-09-09 16:32:00,
2013-09-09 12:37:00,81.1,68.2,30.13,ESE,111,2.0,4.0,65,0.00,,,0.00,meteohub,2013-09-09 16:37:00,
2013-09-09 12:42:00,80.8,68.0,30.13,SE,126,2.0,4.0,65,0.00,,,0.00,meteohub,2013-09-09 16:42:00,
2013-09-09 12:47:00,80.8,68.4,30.13,SE,140,0.0,4.0,66,0.00,,,0.00,meteohub,2013-09-09 16:47:00,
2013-09-09 12:52:00,81.0,68.0,30.13,ESE,123,1.0,4.0,65,0.00,,,0.00,meteohub,2013-09-09 16:52:00,
2013-09-09 12:57:00,81.0,68.5,30.13,ESE,121,0.0,4.0,66,0.00,,,0.00,meteohub,2013-09-09 16:57:00,
2013-09-09 13:02:00,81.1,67.8,30.13,ESE,121,0.0,3.0,64,0.00,,,0.00,meteohub,2013-09-09 17:02:00,
2013-09-09 13:07:00,81.3,68.4,30.13,SE,140,1.0,3.0,65,0.00,,,0.00,meteohub,2013-09-09 17:07:00,
2013-09-09 13:12:00,81.3,68.9,30.13,SSE,163,1.0,3.0,66,0.00,,,0.00,meteohub,2013-09-09 17:12:00,
2013-09-09 13:17:00,81.1,68.7,30.13,South,189,1.0,3.0,66,0.00,,,0.00,meteohub,2013-09-09 17:17:00,
2013-09-09 13:22:00,81.3,68.9,30.13,SE,135,0.0,3.0,66,0.00,,,0.00,meteohub,2013-09-09 17:22:00,
2013-09-09 13:27:00,81.9,68.5,30.13,SE,144,2.0,3.0,64,0.00,,,0.00,meteohub,2013-09-09 17:27:00,
2013-09-09 13:32:00,81.9,68.9,30.12,South,172,0.0,4.0,65,0.00,,,0.00,meteohub,2013-09-09 17:32:00,
2013-09-09 13:37:00,82.2,69.8,30.12,ESE,120,1.0,4.0,66,0.00,,,0.00,meteohub,2013-09-09 17:37:00,
2013-09-09 13:42:00,82.0,68.2,30.12,ESE,121,0.0,4.0,63,0.00,,,0.00,meteohub,2013-09-09 17:42:00,
2013-09-09 13:47:00,81.9,69.4,30.12,South,171,1.0,3.0,66,0.00,,,0.00,meteohub,2013-09-09 17:47:00,
2013-09-09 13:52:00,81.9,67.6,30.12,ESE,118,1.0,3.0,62,0.00,,,0.00,meteohub,2013-09-09 17:52:00,
2013-09-09 13:57:00,82.0,68.7,30.12,ESE,113,3.0,3.0,64,0.00,,,0.00,meteohub,2013-09-09 17:57:00,
2013-09-09 14:02:00,82.0,68.2,30.12,SE,126,0.0,3.0,63,0.00,,,0.00,meteohub,2013-09-09 18:02:00,
2013-09-09 14:07:00,81.9,68.5,30.12,ESE,119,0.0,3.0,64,0.00,,,0.00,meteohub,2013-09-09 18:07:00,
2013-09-09 14:12:00,82.0,69.1,30.12,ESE,119,0.0,3.0,65,0.00,,,0.00,meteohub,2013-09-09 18:12:00,
2013-09-09 14:17:00,81.9,69.8,30.12,ESE,119,1.0,2.0,67,0.00,,,0.00,meteohub,2013-09-09 18:17:00,
2013-09-09 14:22:00,82.2,70.2,30.12,ESE,122,1.0,2.0,67,0.00,,,0.00,meteohub,2013-09-09 18:22:00,
2013-09-09 14:27:00,82.6,69.1,30.12,ESE,117,0.0,2.0,64,0.00,,,0.00,meteohub,2013-09-09 18:27:00,
2013-09-09 14:32:00,82.6,69.6,30.12,ESE,117,0.0,2.0,65,0.00,,,0.00,meteohub,2013-09-09 18:32:00,
2013-09-09 14:37:00,82.6,70.0,30.12,ESE,105,0.0,2.0,66,0.00,,,0.00,meteohub,2013-09-09 18:37:00,
2013-09-09 14:42:00,82.6,70.0,30.12,ESE,113,2.0,2.0,66,0.00,,,0.00,meteohub,2013-09-09 18:42:00,
2013-09-09 14:47:00,82.8,69.3,30.12,SE,136,0.0,3.0,64,0.00,,,0.00,meteohub,2013-09-09 18:47:00,
2013-09-09 14:52:00,82.9,69.4,30.11,ESE,123,0.0,3.0,64,0.00,,,0.00,meteohub,2013-09-09 18:52:00,
2013-09-09 14:57:00,82.8,68.9,30.11,SE,129,2.0,3.0,63,0.00,,,0.00,meteohub,2013-09-09 18:57:00,
2013-09-09 15:02:00,82.8,68.4,30.11,East,100,0.0,3.0,62,0.00,,,0.00,meteohub,2013-09-09 19:02:00,
2013-09-09 15:07:00,82.2,70.2,30.11,SE,126,0.0,3.0,67,0.00,,,0.00,meteohub,2013-09-09 19:07:00,
2013-09-09 15:12:00,82.6,68.7,30.11,ESE,119,0.0,3.0,63,0.00,,,0.00,meteohub,2013-09-09 19:12:00,
2013-09-09 15:17:00,82.8,70.7,30.11,ESE,119,0.0,2.0,67,0.00,,,0.00,meteohub,2013-09-09 19:17:00,
2013-09-09 15:22:00,82.0,68.7,30.11,SE,130,0.0,2.0,64,0.00,,,0.00,meteohub,2013-09-09 19:22:00,
2013-09-09 15:27:00,82.4,68.5,30.11,SE,130,0.0,2.0,63,0.00,,,0.00,meteohub,2013-09-09 19:27:00,
2013-09-09 15:32:00,82.6,68.2,30.11,SE,130,0.0,2.0,62,0.00,,,0.00,meteohub,2013-09-09 19:32:00,
2013-09-09 15:37:00,82.8,68.9,30.10,SE,130,0.0,2.0,63,0.00,,,0.00,meteohub,2013-09-09 19:37:00,
2013-09-09 15:42:00,82.6,70.9,30.10,SE,128,0.0,1.0,68,0.00,,,0.00,meteohub,2013-09-09 19:42:00,
2013-09-09 15:47:00,82.2,69.3,30.11,SE,127,1.0,2.0,65,0.00,,,0.00,meteohub,2013-09-09 19:47:00,
2013-09-09 15:52:00,82.6,68.7,30.11,ESE,123,1.0,2.0,63,0.00,,,0.00,meteohub,2013-09-09 19:52:00,
2013-09-09 15:57:00,82.9,69.1,30.11,SE,125,0.0,2.0,63,0.00,,,0.00,meteohub,2013-09-09 19:57:00,
2013-09-09 16:02:00,82.9,70.3,30.11,ESE,122,1.0,3.0,66,0.00,,,0.00,meteohub,2013-09-09 20:02:00,
2013-09-09 16:07:00,82.9,70.0,30.11,ESE,122,0.0,3.0,65,0.00,,,0.00,meteohub,2013-09-09 20:07:00,
2013-09-09 16:12:00,82.8,69.3,30.11,ESE,122,0.0,2.0,64,0.00,,,0.00,meteohub,2013-09-09 20:12:00,
2013-09-09 16:17:00,82.8,69.3,30.11,ESE,123,0.0,2.0,64,0.00,,,0.00,meteohub,2013-09-09 20:17:00,
2013-09-09 16:22:00,82.8,68.9,30.11,SE,130,0.0,2.0,63,0.00,,,0.00,meteohub,2013-09-09 20:22:00,
2013-09-09 16:27:00,82.8,69.3,30.10,SE,130,0.0,3.0,64,0.00,,,0.00,meteohub,2013-09-09 20:27:00,
2013-09-09 16:32:00,82.8,69.8,30.10,SE,130,0.0,3.0,65,0.00,,,0.00,meteohub,2013-09-09 20:32:00,
2013-09-09 16:37:00,82.8,69.8,30.11,SE,130,2.0,2.0,65,0.00,,,0.00,meteohub,2013-09-09 20:37:00,
2013-09-09 16:42:00,82.8,69.8,30.11,SE,130,2.0,2.0,65,0.00,,,0.00,meteohub,2013-09-09 20:42:00,
2013-09-09 16:47:00,82.6,69.6,30.10,SE,130,2.0,3.0,65,0.00,,,0.00,meteohub,2013-09-09 20:47:00,
2013-09-09 16:52:00,82.6,68.7,30.10,ESE,119,0.0,3.0,63,0.00,,,0.00,meteohub,2013-09-09 20:52:00,
2013-09-09 16:57:00,82.6,69.1,30.11,ESE,119,0.0,3.0,64,0.00,,,0.00,meteohub,2013-09-09 20:57:00,
2013-09-09 17:02:00,82.6,69.6,30.11,ESE,121,2.0,3.0,65,0.00,,,0.00,meteohub,2013-09-09 21:02:00,
2013-09-09 17:07:00,82.6,70.0,30.11,ESE,121,0.0,2.0,66,0.00,,,0.00,meteohub,2013-09-09 21:07:00,
2013-09-09 17:12:00,82.6,69.1,30.11,ESE,121,1.0,2.0,64,0.00,,,0.00,meteohub,2013-09-09 21:12:00,
2013-09-09 17:17:00,82.4,69.4,30.11,ESE,121,0.0,3.0,65,0.00,,,0.00,meteohub,2013-09-09 21:17:00,
2013-09-09 17:22:00,82.0,69.6,30.11,ESE,121,0.0,3.0,66,0.00,,,0.00,meteohub,2013-09-09 21:22:00,
2013-09-09 17:27:00,82.0,69.1,30.10,ESE,121,0.0,3.0,65,0.00,,,0.00,meteohub,2013-09-09 21:27:00,
2013-09-09 17:32:00,81.9,68.9,30.10,ESE,121,0.0,2.0,65,0.00,,,0.00,meteohub,2013-09-09 21:32:00,
2013-09-09 17:37:00,81.7,69.6,30.10,ESE,121,0.0,2.0,67,0.00,,,0.00,meteohub,2013-09-09 21:37:00,
2013-09-09 17:42:00,81.1,70.3,30.10,ESE,121,0.0,2.0,70,0.00,,,0.00,meteohub,2013-09-09 21:42:00,
2013-09-09 17:47:00,81.0,69.4,30.10,ESE,121,0.0,1.0,68,0.00,,,0.00,meteohub,2013-09-09 21:47:00,
2013-09-09 17:52:00,81.1,70.9,30.10,ESE,121,0.0,1.0,71,0.00,,,0.00,meteohub,2013-09-09 21:52:00,
2013-09-09 17:57:00,81.0,69.8,30.10,ESE,121,0.0,1.0,69,0.00,,,0.00,meteohub,2013-09-09 21:57:00,
2013-09-09 18:02:00,81.1,69.1,30.10,ESE,121,0.0,1.0,67,0.00,,,0.00,meteohub,2013-09-09 22:02:00,
2013-09-09 18:07:00,81.1,69.6,30.10,ESE,121,0.0,2.0,68,0.00,,,0.00,meteohub,2013-09-09 22:07:00,
2013-09-09 18:12:00,81.0,70.7,30.10,ESE,121,0.0,2.0,71,0.00,,,0.00,meteohub,2013-09-09 22:12:00,
2013-09-09 18:17:00,80.2,70.3,30.10,ESE,121,0.0,1.0,72,0.00,,,0.00,meteohub,2013-09-09 22:17:00,
2013-09-09 18:22:00,79.7,71.1,30.10,ESE,121,0.0,0.0,75,0.00,,,0.00,meteohub,2013-09-09 22:22:00,
2013-09-09 18:27:00,79.3,71.1,30.10,ESE,121,0.0,0.0,76,0.00,,,0.00,meteohub,2013-09-09 22:27:00,
2013-09-09 18:32:00,79.2,71.2,30.10,ESE,121,0.0,0.0,77,0.00,,,0.00,meteohub,2013-09-09 22:32:00,
2013-09-09 18:37:00,78.6,71.2,30.10,ESE,121,0.0,0.0,78,0.00,,,0.00,meteohub,2013-09-09 22:37:00,
2013-09-09 18:42:00,78.6,72.0,30.10,ESE,121,0.0,0.0,80,0.00,,,0.00,meteohub,2013-09-09 22:42:00,
2013-09-09 18:47:00,78.6,71.6,30.10,ESE,121,0.0,0.0,79,0.00,,,0.00,meteohub,2013-09-09 22:47:00,
2013-09-09 18:52:00,78.6,70.3,30.10,ESE,121,0.0,0.0,76,0.00,,,0.00,meteohub,2013-09-09 22:52:00,
2013-09-09 18:57:00,79.2,70.2,30.10,ESE,121,0.0,0.0,74,0.00,,,0.00,meteohub,2013-09-09 22:57:00,
2013-09-09 19:02:00,79.2,70.2,30.10,ESE,121,0.0,0.0,74,0.00,,,0.00,meteohub,2013-09-09 23:02:00,
2013-09-09 19:07:00,79.2,69.8,30.10,ESE,121,0.0,0.0,73,0.00,,,0.00,meteohub,2013-09-09 23:07:00,
2013-09-09 19:12:00,78.6,71.6,30.11,ESE,121,0.0,0.0,79,0.00,,,0.00,meteohub,2013-09-09 23:12:00,
2013-09-09 19:17:00,78.1,70.0,30.11,ESE,121,0.0,0.0,76,0.00,,,0.00,meteohub,2013-09-09 23:17:00,
2013-09-09 19:22:00,78.1,69.4,30.11,ESE,121,0.0,0.0,75,0.00,,,0.00,meteohub,2013-09-09 23:22:00,
2013-09-09 19:27:00,78.3,69.3,30.11,ESE,121,0.0,0.0,74,0.00,,,0.00,meteohub,2013-09-09 23:27:00,
2013-09-09 19:32:00,78.4,69.4,30.11,ESE,121,0.0,0.0,74,0.00,,,0.00,meteohub,2013-09-09 23:32:00,
2013-09-09 19:37:00,78.4,69.4,30.10,ESE,121,0.0,0.0,74,0.00,,,0.00,meteohub,2013-09-09 23:37:00,
2013-09-09 19:42:00,78.3,69.6,30.10,ESE,121,0.0,0.0,75,0.00,,,0.00,meteohub,2013-09-09 23:42:00,
2013-09-09 19:47:00,77.7,69.6,30.10,ESE,121,0.0,0.0,76,0.00,,,0.00,meteohub,2013-09-09 23:47:00,
2013-09-09 19:52:00,77.5,69.4,30.10,ESE,121,0.0,0.0,76,0.00,,,0.00,meteohub,2013-09-09 23:52:00,
2013-09-09 19:57:00,77.7,69.6,30.11,ESE,121,0.0,0.0,76,0.00,,,0.00,meteohub,2013-09-09 23:57:00,
2013-09-09 20:02:00,77.7,69.6,30.11,ESE,121,0.0,0.0,76,0.00,,,0.00,meteohub,2013-09-10 00:02:00,
2013-09-09 20:07:00,77.5,69.4,30.11,ESE,121,0.0,0.0,76,0.00,,,0.00,meteohub,2013-09-10 00:07:00,
2013-09-09 20:12:00,77.5,69.8,30.11,ESE,121,0.0,0.0,77,0.00,,,0.00,meteohub,2013-09-10 00:12:00,
2013-09-09 20:17:00,77.5,69.8,30.11,ESE,121,0.0,1.0,77,0.00,,,0.00,meteohub,2013-09-10 00:17:00,
2013-09-09 20:22:00,77.5,69.4,30.11,ESE,120,0.0,1.0,76,0.00,,,0.00,meteohub,2013-09-10 00:22:00,
2013-09-09 20:27:00,77.5,69.4,30.11,ESE,121,0.0,0.0,76,0.00,,,0.00,meteohub,2013-09-10 00:27:00,
2013-09-09 20:32:00,77.5,69.4,30.11,ESE,121,0.0,0.0,76,0.00,,,0.00,meteohub,2013-09-10 00:32:00,
2013-09-09 20:37:00,77.5,69.4,30.12,ESE,121,0.0,0.0,76,0.00,,,0.00,meteohub,2013-09-10 00:37:00,
2013-09-09 20:42:00,77.5,69.4,30.12,ESE,121,0.0,0.0,76,0.00,,,0.00,meteohub,2013-09-10 00:42:00,
2013-09-09 20:47:00,77.5,69.4,30.12,ESE,121,0.0,0.0,76,0.00,,,0.00,meteohub,2013-09-10 00:47:00,
2013-09-09 20:52:00,77.5,69.4,30.12,ESE,121,0.0,0.0,76,0.00,,,0.00,meteohub,2013-09-10 00:52:00,
2013-09-09 20:57:00,77.4,69.3,30.12,ESE,121,0.0,0.0,76,0.00,,,0.00,meteohub,2013-09-10 00:57:00,
2013-09-09 21:02:00,77.4,69.3,30.12,ESE,121,0.0,0.0,76,0.00,,,0.00,meteohub,2013-09-10 01:02:00,
2013-09-09 21:07:00,77.4,69.3,30.12,ESE,121,0.0,0.0,76,0.00,,,0.00,meteohub,2013-09-10 01:07:00,
2013-09-09 21:12:00,77.4,69.6,30.12,ESE,121,0.0,0.0,77,0.00,,,0.00,meteohub,2013-09-10 01:12:00,
2013-09-09 21:17:00,77.4,69.6,30.13,ESE,121,0.0,0.0,77,0.00,,,0.00,meteohub,2013-09-10 01:17:00,
2013-09-09 21:22:00,77.4,69.6,30.13,ESE,121,0.0,0.0,77,0.00,,,0.00,meteohub,2013-09-10 01:22:00,
2013-09-09 21:27:00,77.4,69.6,30.13,ESE,121,0.0,0.0,77,0.00,,,0.00,meteohub,2013-09-10 01:27:00,
2013-09-09 21:32:00,77.2,69.8,30.13,ESE,121,0.0,0.0,78,0.00,,,0.00,meteohub,2013-09-10 01:32:00,
2013-09-09 21:37:00,77.2,69.8,30.13,ESE,121,0.0,0.0,78,0.00,,,0.00,meteohub,2013-09-10 01:37:00,
2013-09-09 21:42:00,77.2,69.8,30.13,ESE,121,0.0,0.0,78,0.00,,,0.00,meteohub,2013-09-10 01:42:00,
2013-09-09 21:47:00,77.0,69.6,30.13,ESE,121,0.0,0.0,78,0.00,,,0.00,meteohub,2013-09-10 01:47:00,
2013-09-09 21:52:00,76.8,69.4,30.13,ESE,121,0.0,0.0,78,0.00,,,0.00,meteohub,2013-09-10 01:52:00,
2013-09-09 21:57:00,76.8,69.4,30.13,ESE,121,0.0,0.0,78,0.00,,,0.00,meteohub,2013-09-10 01:57:00,
2013-09-09 22:02:00,76.6,69.6,30.13,ESE,121,0.0,0.0,79,0.00,,,0.00,meteohub,2013-09-10 02:02:00,
2013-09-09 22:07:00,76.6,69.6,30.13,ESE,121,0.0,0.0,79,0.00,,,0.00,meteohub,2013-09-10 02:07:00,
2013-09-09 22:12:00,76.5,69.4,30.13,ESE,121,0.0,0.0,79,0.00,,,0.00,meteohub,2013-09-10 02:12:00,
2013-09-09 22:17:00,76.5,69.4,30.13,ESE,121,0.0,0.0,79,0.00,,,0.00,meteohub,2013-09-10 02:17:00,
2013-09-09 22:22:00,76.5,69.8,30.13,ESE,121,0.0,0.0,80,0.00,,,0.00,meteohub,2013-09-10 02:22:00,
2013-09-09 22:27:00,76.3,69.6,30.13,ESE,121,0.0,0.0,80,0.00,,,0.00,meteohub,2013-09-10 02:27:00,
2013-09-09 22:32:00,76.3,69.6,30.14,ESE,121,0.0,0.0,80,0.00,,,0.00,meteohub,2013-09-10 02:32:00,
2013-09-09 22:37:00,76.1,69.4,30.14,ESE,121,0.0,0.0,80,0.00,,,0.00,meteohub,2013-09-10 02:37:00,
2013-09-09 22:42:00,75.9,69.3,30.14,ESE,121,0.0,0.0,80,0.00,,,0.00,meteohub,2013-09-10 02:42:00,
2013-09-09 22:47:00,75.9,69.6,30.14,ESE,121,0.0,0.0,81,0.00,,,0.00,meteohub,2013-09-10 02:47:00,
2013-09-09 22:52:00,75.9,69.6,30.14,ESE,121,0.0,0.0,81,0.00,,,0.00,meteohub,2013-09-10 02:52:00,
2013-09-09 22:57:00,75.7,69.4,30.14,ESE,121,0.0,0.0,81,0.00,,,0.00,meteohub,2013-09-10 02:57:00,
2013-09-09 23:02:00,75.7,69.8,30.14,ESE,121,0.0,0.0,82,0.00,,,0.00,meteohub,2013-09-10 03:02:00,
2013-09-09 23:07:00,75.6,69.6,30.14,ESE,121,0.0,0.0,82,0.00,,,0.00,meteohub,2013-09-10 03:07:00,
2013-09-09 23:12:00,75.6,69.6,30.14,ESE,121,0.0,0.0,82,0.00,,,0.00,meteohub,2013-09-10 03:12:00,
2013-09-09 23:17:00,75.4,69.4,30.14,ESE,121,0.0,0.0,82,0.00,,,0.00,meteohub,2013-09-10 03:17:00,
2013-09-09 23:22:00,75.4,69.4,30.14,ESE,121,0.0,0.0,82,0.00,,,0.00,meteohub,2013-09-10 03:22:00,
2013-09-09 23:27:00,75.2,69.6,30.14,ESE,121,0.0,0.0,83,0.00,,,0.00,meteohub,2013-09-10 03:27:00,
2013-09-09 23:32:00,75.0,69.4,30.14,ESE,121,0.0,0.0,83,0.00,,,0.00,meteohub,2013-09-10 03:32:00,
2013-09-09 23:37:00,75.0,69.8,30.14,ESE,121,0.0,0.0,84,0.00,,,0.00,meteohub,2013-09-10 03:37:00,
2013-09-09 23:42:00,74.8,69.6,30.15,ESE,121,0.0,0.0,84,0.00,,,0.00,meteohub,2013-09-10 03:42:00,
2013-09-09 23:47:00,74.8,69.6,30.15,ESE,121,0.0,0.0,84,0.00,,,0.00,meteohub,2013-09-10 03:47:00,
2013-09-09 23:52:00,74.7,69.8,30.15,ESE,121,0.0,0.0,85,0.00,,,0.00,meteohub,2013-09-10 03:52:00,
2013-09-09 23:57:00,74.5,69.6,30.15,ESE,121,0.0,0.0,85,0.00,,,0.00,meteohub,2013-09-10 03:57:00,